Miscellaneous Local Product
Issued by NWS North Platte, NE

Home | Current Version | Previous Version | Text Only | Print | Product List | Glossary On
Versions: 1 2 3 4 5 6 7 8 9 10 11 12 13 14 15 16 17 18 19 20 21 22 23 24 25 26 27 28 29 30 31 32 33 34 35 36 37 38 39 40 41 42 43 44 45 46 47 48 49 50
865
AXUS43 KLBF 231110
MISLBF


WESTERN AND NORTH CENTRAL NEBRASKA HOURLY WEATHER ROUNDUP
NATIONAL WEATHER SERVICE NORTH PLATTE NE
600 AM CDT TUE MAY 23 2017

NOTE: "FAIR" INDICATES FEW OR NO CLOUDS BELOW 12,000 FEET WITH NO
SIGNIFICANT WEATHER AND/OR OBSTRUCTIONS TO VISIBILITY.

NOTE: STATIONS NOT REPORTING VARIABLES SUCH AS SKY/WEATHER OR
PRESSURE ARE PROVIDED BY RAWS AND APRS NETWORKS AND ARE NOT UNDER
NATIONAL WEATHER SERVICE QUALITY CONTROL.

...OBSERVATIONS IN AND NEAR THE EASTERN PANHANDLE OF NEBRASKA...

CITY           SKY/WX    TMP DP  RH WIND       PRES   REMARKS
PINE RIDGE     CLEAR     41  38  89 W5        30.10S
GORDON         CLOUDY    44  39  83 NW9       30.09R
CHADRON        PTCLDY    43  39  86 NW13      30.12F
ALLIANCE       MOCLDY    37  35  92 W8        30.11F WCI  31
SIDNEY         CLEAR     36  34  92 NW10      30.15S WCI  28
CRESCENT LAKE    N/A     40  37  90 NW8         N/A  WCI  34
$$

...OBSERVATIONS IN NORTHERN NEBRASKA AND FAR SOUTHERN SOUTH DAKOTA...

CITY           SKY/WX    TMP DP  RH WIND       PRES   REMARKS
WINNER         CLOUDY    50  42  74 N16       29.99R
VALENTINE      CLOUDY    50  41  71 NW14      30.01S
THEDFORD       CLOUDY    45  43  91 W9        30.03F
AINSWORTH      CLOUDY    49  44  83 NW14G21   29.99S
O`NEILL        CLOUDY    48  43  84 CALM      29.95F
ORD            CLOUDY    47  42  83 W7        29.97F
BROKEN BOW     CLOUDY    47  42  83 W14       30.00F
VALENTINE NWR    N/A     47  42  84 NW12        N/A
HALSEY           N/A     44  41  90 W7          N/A
BUTTE            N/A     47  43  86 W3          N/A
CHAMBERS         N/A     47  44  88 CALM        N/A
EWING            N/A     46  44  93 CALM        N/A
$$

...OBSERVATIONS IN SOUTHWEST NEBRASKA AND FAR NORTHEAST COLORADO...

CITY           SKY/WX    TMP DP  RH WIND       PRES   REMARKS
WRAY           FAIR      41  37  87 NW10      30.14S
IMPERIAL       CLOUDY    43  38  82 NW10      30.10F
OGALLALA       CLOUDY    46  41  82 NW12      30.10S
NORTH PLATTE   CLOUDY    43  41  93 W9        30.06F
MCCOOK         CLEAR     42  40  92 NW14      30.06F
LEXINGTON      CLOUDY    45  42  89 W13       30.04F
STAPLETON        N/A     43  40  91 CALM        N/A
GOTHENBURG       N/A     43  40  88 W6          N/A
CALLAWAY         N/A     42  40  94 NW8         N/A
$$

...OBSERVATIONS IN CENTRAL LINCOLN COUNTY AREA...

CITY           SKY/WX    TMP DP  RH WIND       PRES   REMARKS
N.P. AIRPORT   CLOUDY    43  41  93 W9        30.06F
N.P. DOWNTOWN    N/A     44  42  91 W3          N/A
N.P. SOUTHEAST   N/A     43  40  89 CALM        N/A
N.P. HILLCREST   N/A     43  41  92 W8          N/A
$$

...SOME OBSERVATIONS FROM AROUND THE REGION...

CITY           SKY/WX    TMP DP  RH WIND       PRES   REMARKS
DENVER         MOCLDY    42  35  76 W9        30.21F
LIMON          CLEAR     38  35  89 N14       30.18F WCI  30
ASPEN          CLOUDY    33  32  96 CALM      30.31R
LARAMIE        CLOUDY    30  26  85 NW6       30.25F WCI  24
CASPER         PTCLDY    37  36  96 W9        30.24F WCI  30
CHEYENNE       CLOUDY    40  32  73 NW9       30.21F WCI  34
SCOTTSBLUFF    CLEAR     36  33  89 W5        30.16F WCI  32
GRAND ISLAND   CLEAR     45  43  93 W9        29.99S
OMAHA          PTCLDY    48  42  80 NW8       29.91S
SIOUX FALLS    CLOUDY    48  45  89 NW9       29.88F
PIERRE         CLOUDY    48  40  73 NW14      30.00S
RAPID CITY     CLOUDY    48  39  71 N15       30.12R
BISMARCK       CLOUDY    53  36  52 N18G25    30.05S
KANSAS CITY    CLOUDY    56  55  97 N8        29.85F
HILL CITY      PTCLDY    45  43  93 NW7       30.06F
WICHITA        CLOUDY    55  51  86 N14       29.93R
DODGE CITY     CLOUDY    47  45  93 NW12      30.06S
OKLAHOMA CITY  MOCLDY    57  54  89 NW9       29.91F
DALLAS         CLOUDY    65  63  93 NE7       29.84F
AMARILLO       CLOUDY    49  43  80 N21G29    30.14S
$$




USA.gov is the U.S. government's official web portal to all federal, state and local government web resources and services.